Time,TemperatureF,DewpointF,PressureIn,WindDirection,WindDirectionDegrees,WindSpeedMPH,WindSpeedGustMPH,Humidity,HourlyPrecipIn,Conditions,Clouds,dailyrainin,SoftwareType,DateUTC
2013-09-16 00:11:00,59.0,42.0,-100.00,NNE,26,4.0,9.0,54,-99.99,,,-99.99,,2013-09-16 00:11:00,
2013-09-16 00:21:00,59.0,42.0,-100.00,NNE,26,4.0,9.0,54,-99.99,,,-99.99,,2013-09-16 00:21:00,
2013-09-16 00:32:00,59.0,42.0,-100.00,NNE,26,4.0,9.0,54,-99.99,,,-99.99,,2013-09-16 00:32:00,
2013-09-16 00:52:00,61.0,41.0,-100.00,North,9,2.0,11.0,47,-99.99,,,-99.99,,2013-09-16 00:52:00,
2013-09-16 01:12:00,60.0,40.0,-100.00,NNE,20,4.0,11.0,48,-99.99,,,-99.99,,2013-09-16 01:12:00,
2013-09-16 01:21:00,60.0,40.0,-100.00,NNE,20,4.0,11.0,48,-99.99,,,-99.99,,2013-09-16 01:21:00,
2013-09-16 01:31:00,60.0,40.0,-100.00,NNE,20,4.0,11.0,48,-99.99,,,-99.99,,2013-09-16 01:31:00,
2013-09-16 01:52:00,60.0,39.0,-100.00,North,6,2.0,12.0,46,-99.99,,,-99.99,,2013-09-16 01:52:00,
2013-09-16 02:02:00,60.0,39.0,-100.00,North,6,2.0,12.0,46,-99.99,,,-99.99,,2013-09-16 02:02:00,
2013-09-16 02:12:00,60.0,39.0,-100.00,North,6,2.0,12.0,46,-99.99,,,-99.99,,2013-09-16 02:12:00,
2013-09-16 02:21:00,60.0,40.0,-100.00,NNE,19,4.0,9.0,48,-99.99,,,-99.99,,2013-09-16 02:21:00,
2013-09-16 02:52:00,60.0,40.0,-100.00,NNE,19,4.0,9.0,48,-99.99,,,-99.99,,2013-09-16 02:52:00,
2013-09-16 03:02:00,60.0,40.0,-100.00,NNE,19,4.0,9.0,48,-99.99,,,-99.99,,2013-09-16 03:02:00,
2013-09-16 03:11:00,60.0,40.0,-100.00,NNE,19,4.0,9.0,48,-99.99,,,-99.99,,2013-09-16 03:11:00,
2013-09-16 03:55:00,57.0,40.0,-100.00,NE,38,5.0,12.0,53,-99.99,,,-99.99,,2013-09-16 03:55:00,
2013-09-16 04:13:00,55.0,40.0,-100.00,ENE,63,3.0,8.0,57,-99.99,,,-99.99,,2013-09-16 04:13:00,
2013-09-16 04:24:00,53.0,38.0,-100.00,NE,47,4.0,8.0,57,-99.99,,,-99.99,,2013-09-16 04:24:00,
2013-09-16 04:43:00,51.0,38.0,-100.00,NNE,27,3.0,8.0,60,-99.99,,,-99.99,,2013-09-16 04:43:00,
2013-09-16 04:54:00,49.0,38.0,-100.00,West,269,0.0,4.0,66,-99.99,,,-99.99,,2013-09-16 04:54:00,
2013-09-16 05:04:00,49.0,38.0,-100.00,West,269,0.0,4.0,66,-99.99,,,-99.99,,2013-09-16 05:04:00,
2013-09-16 05:12:00,49.0,38.0,-100.00,West,269,0.0,4.0,66,-99.99,,,-99.99,,2013-09-16 05:12:00,
2013-09-16 05:21:00,48.0,35.0,-100.00,South,183,3.0,6.0,60,-99.99,,,-99.99,,2013-09-16 05:21:00,
2013-09-16 05:22:00,48.0,35.0,-100.00,SSW,206,2.0,4.0,61,-99.99,,,-99.99,,2013-09-16 05:22:00,
2013-09-16 05:33:00,48.0,35.0,-100.00,SSW,206,2.0,4.0,61,-99.99,,,-99.99,,2013-09-16 05:33:00,
2013-09-16 05:44:00,48.0,35.0,-100.00,SSW,206,2.0,4.0,61,-99.99,,,-99.99,,2013-09-16 05:44:00,
2013-09-16 05:52:00,48.0,35.0,-100.00,South,183,3.0,6.0,60,-99.99,,,-99.99,,2013-09-16 05:52:00,
2013-09-16 06:02:00,48.0,35.0,-100.00,South,183,3.0,6.0,60,-99.99,,,-99.99,,2013-09-16 06:02:00,
2013-09-16 06:12:00,48.0,35.0,-100.00,South,183,3.0,6.0,60,-99.99,,,-99.99,,2013-09-16 06:12:00,
2013-09-16 07:11:00,48.0,34.0,-100.00,SSW,196,5.0,11.0,59,-99.99,,,-99.99,,2013-09-16 07:11:00,
2013-09-16 07:21:00,48.0,34.0,-100.00,SSW,196,5.0,11.0,59,-99.99,,,-99.99,,2013-09-16 07:21:00,
2013-09-16 07:32:00,48.0,34.0,-100.00,SSW,196,5.0,11.0,59,-99.99,,,-99.99,,2013-09-16 07:32:00,
2013-09-16 07:52:00,48.0,34.0,-100.00,SSW,193,5.0,10.0,58,-99.99,,,-99.99,,2013-09-16 07:52:00,
2013-09-16 08:02:00,48.0,34.0,-100.00,SSW,193,5.0,10.0,58,-99.99,,,-99.99,,2013-09-16 08:02:00,
2013-09-16 08:11:00,48.0,34.0,-100.00,SSW,193,5.0,10.0,58,-99.99,,,-99.99,,2013-09-16 08:11:00,
2013-09-16 08:42:00,46.0,34.0,-100.00,SSW,205,5.0,10.0,63,-99.99,,,-99.99,,2013-09-16 08:42:00,
2013-09-16 08:52:00,46.0,35.0,-100.00,SW,214,6.0,13.0,64,-99.99,,,-99.99,,2013-09-16 08:52:00,
2013-09-16 09:01:00,46.0,35.0,-100.00,SW,214,6.0,13.0,64,-99.99,,,-99.99,,2013-09-16 09:01:00,
2013-09-16 09:11:00,46.0,35.0,-100.00,SW,214,6.0,13.0,64,-99.99,,,-99.99,,2013-09-16 09:11:00,
2013-09-16 09:22:00,45.0,35.0,-100.00,South,190,8.0,11.0,69,-99.99,,,-99.99,,2013-09-16 09:22:00,
2013-09-16 09:43:00,44.0,36.0,-100.00,SSW,195,8.0,13.0,72,-99.99,,,-99.99,,2013-09-16 09:43:00,
2013-09-16 09:53:00,44.0,36.0,-100.00,SSW,195,8.0,13.0,72,-99.99,,,-99.99,,2013-09-16 09:53:00,
2013-09-16 10:03:00,44.0,36.0,-100.00,SSW,195,8.0,13.0,72,-99.99,,,-99.99,,2013-09-16 10:03:00,
2013-09-16 10:23:00,45.0,36.0,-100.00,South,191,5.0,10.0,70,-99.99,,,-99.99,,2013-09-16 10:23:00,
2013-09-16 10:33:00,45.0,36.0,-100.00,South,191,5.0,10.0,70,-99.99,,,-99.99,,2013-09-16 10:33:00,
2013-09-16 10:42:00,45.0,36.0,-100.00,South,191,5.0,10.0,70,-99.99,,,-99.99,,2013-09-16 10:42:00,
2013-09-16 10:53:00,45.0,35.0,-100.00,SSW,210,4.0,10.0,67,-99.99,,,-99.99,,2013-09-16 10:53:00,
2013-09-16 11:02:00,45.0,35.0,-100.00,SSW,210,4.0,10.0,67,-99.99,,,-99.99,,2013-09-16 11:02:00,
2013-09-16 11:12:00,45.0,35.0,-100.00,SSW,210,4.0,10.0,67,-99.99,,,-99.99,,2013-09-16 11:12:00,
2013-09-16 11:22:00,44.0,34.0,-100.00,SSW,200,3.0,6.0,67,-99.99,,,-99.99,,2013-09-16 11:22:00,
2013-09-16 11:42:00,44.0,35.0,-100.00,South,186,1.0,3.0,70,-99.99,,,-99.99,,2013-09-16 11:42:00,
2013-09-16 11:52:00,44.0,35.0,-100.00,South,186,1.0,3.0,70,-99.99,,,-99.99,,2013-09-16 11:52:00,
2013-09-16 12:01:00,44.0,35.0,-100.00,South,186,1.0,3.0,70,-99.99,,,-99.99,,2013-09-16 12:01:00,
2013-09-16 12:42:00,43.0,36.0,-100.00,South,190,2.0,3.0,75,-99.99,,,-99.99,,2013-09-16 12:42:00,
2013-09-16 12:52:00,42.0,34.0,-100.00,SSW,192,2.0,4.0,74,-99.99,,,-99.99,,2013-09-16 12:52:00,
2013-09-16 13:11:00,42.0,34.0,-100.00,SSW,192,2.0,4.0,74,-99.99,,,-99.99,,2013-09-16 13:11:00,
2013-09-16 13:21:00,42.0,34.0,-100.00,SSW,192,2.0,4.0,74,-99.99,,,-99.99,,2013-09-16 13:21:00,
2013-09-16 13:42:00,42.0,35.0,-100.00,SSW,208,2.0,4.0,75,-99.99,,,-99.99,,2013-09-16 13:42:00,
2013-09-16 13:52:00,42.0,35.0,-100.00,SSW,208,2.0,4.0,75,-99.99,,,-99.99,,2013-09-16 13:52:00,
2013-09-16 14:02:00,42.0,35.0,-100.00,SSW,208,2.0,4.0,75,-99.99,,,-99.99,,2013-09-16 14:02:00,
2013-09-16 14:21:00,42.0,33.0,-100.00,WSW,245,2.0,3.0,69,-99.99,,,-99.99,,2013-09-16 14:21:00,
2013-09-16 14:42:00,41.0,33.0,-100.00,SW,217,0.0,3.0,74,-99.99,,,-99.99,,2013-09-16 14:42:00,
2013-09-16 14:52:00,41.0,33.0,-100.00,SW,217,0.0,3.0,74,-99.99,,,-99.99,,2013-09-16 14:52:00,
2013-09-16 15:02:00,41.0,33.0,-100.00,SW,217,0.0,3.0,74,-99.99,,,-99.99,,2013-09-16 15:02:00,
2013-09-16 15:22:00,42.0,31.0,-100.00,NE,46,0.0,3.0,64,-99.99,,,-99.99,,2013-09-16 15:22:00,
2013-09-16 15:33:00,42.0,31.0,-100.00,NE,46,0.0,3.0,64,-99.99,,,-99.99,,2013-09-16 15:33:00,
2013-09-16 15:43:00,42.0,31.0,-100.00,NE,46,0.0,3.0,64,-99.99,,,-99.99,,2013-09-16 15:43:00,
2013-09-16 15:53:00,41.0,32.0,-100.00,WSW,239,0.0,3.0,71,-99.99,,,-99.99,,2013-09-16 15:53:00,
2013-09-16 16:12:00,40.0,32.0,-100.00,South,187,1.0,3.0,73,-99.99,,,-99.99,,2013-09-16 16:12:00,
2013-09-16 16:22:00,39.0,33.0,-100.00,South,180,2.0,3.0,79,-99.99,,,-99.99,,2013-09-16 16:22:00,
2013-09-16 16:23:00,39.0,31.0,-100.00,South,174,2.0,3.0,74,-99.99,,,-99.99,,2013-09-16 16:23:00,
2013-09-16 16:43:00,40.0,32.0,-100.00,South,184,2.0,3.0,74,-99.99,,,-99.99,,2013-09-16 16:43:00,
2013-09-16 16:52:00,39.0,33.0,-100.00,South,180,2.0,3.0,79,-99.99,,,-99.99,,2013-09-16 16:52:00,
2013-09-16 17:02:00,39.0,33.0,-100.00,South,180,2.0,3.0,79,-99.99,,,-99.99,,2013-09-16 17:02:00,
2013-09-16 17:12:00,39.0,33.0,-100.00,South,180,2.0,3.0,79,-99.99,,,-99.99,,2013-09-16 17:12:00,
2013-09-16 17:42:00,39.0,32.0,-100.00,SSW,199,3.0,6.0,75,-99.99,,,-99.99,,2013-09-16 17:42:00,
2013-09-16 17:52:00,41.0,32.0,-100.00,South,175,2.0,4.0,69,-99.99,,,-99.99,,2013-09-16 17:52:00,
2013-09-16 17:53:00,39.0,32.0,-100.00,SSE,164,3.0,4.0,76,-99.99,,,-99.99,,2013-09-16 17:53:00,
2013-09-16 18:12:00,40.0,32.0,-100.00,SSE,154,3.0,4.0,72,-99.99,,,-99.99,,2013-09-16 18:12:00,
2013-09-16 18:22:00,41.0,32.0,-100.00,South,175,2.0,4.0,69,-99.99,,,-99.99,,2013-09-16 18:22:00,
2013-09-16 18:32:00,41.0,32.0,-100.00,South,175,2.0,4.0,69,-99.99,,,-99.99,,2013-09-16 18:32:00,
2013-09-16 18:42:00,41.0,32.0,-100.00,South,175,2.0,4.0,69,-99.99,,,-99.99,,2013-09-16 18:42:00,
2013-09-16 19:11:00,41.0,32.0,-100.00,SW,227,2.0,3.0,69,-99.99,,,-99.99,,2013-09-16 19:11:00,
2013-09-16 19:22:00,41.0,32.0,-100.00,SW,227,2.0,3.0,69,-99.99,,,-99.99,,2013-09-16 19:22:00,
2013-09-16 19:31:00,41.0,32.0,-100.00,SW,227,2.0,3.0,69,-99.99,,,-99.99,,2013-09-16 19:31:00,
2013-09-16 19:53:00,42.0,31.0,-100.00,SW,216,4.0,8.0,66,-99.99,,,-99.99,,2013-09-16 19:53:00,
2013-09-16 20:03:00,42.0,31.0,-100.00,SW,216,4.0,8.0,66,-99.99,,,-99.99,,2013-09-16 20:03:00,
2013-09-16 20:11:00,42.0,31.0,-100.00,SW,216,4.0,8.0,66,-99.99,,,-99.99,,2013-09-16 20:11:00,
2013-09-16 20:52:00,44.0,34.0,-100.00,SW,224,5.0,10.0,67,-99.99,,,-99.99,,2013-09-16 20:52:00,
2013-09-16 21:02:00,44.0,34.0,-100.00,SW,224,5.0,10.0,67,-99.99,,,-99.99,,2013-09-16 21:02:00,
2013-09-16 21:11:00,44.0,34.0,-100.00,SW,224,5.0,10.0,67,-99.99,,,-99.99,,2013-09-16 21:11:00,
2013-09-16 21:21:00,44.0,34.0,-100.00,SW,224,5.0,10.0,67,-99.99,,,-99.99,,2013-09-16 21:21:00,
2013-09-16 21:44:00,43.0,34.0,-100.00,WSW,240,3.0,10.0,71,-99.99,,,-99.99,,2013-09-16 21:44:00,
2013-09-16 21:56:00,44.0,34.0,-100.00,SW,219,4.0,10.0,69,-99.99,,,-99.99,,2013-09-16 21:56:00,
2013-09-16 22:13:00,45.0,35.0,-100.00,WSW,239,5.0,9.0,67,-99.99,,,-99.99,,2013-09-16 22:13:00,
2013-09-16 22:24:00,44.0,36.0,-100.00,SW,221,5.0,10.0,72,-99.99,,,-99.99,,2013-09-16 22:24:00,
2013-09-16 22:42:00,45.0,34.0,-100.00,WSW,237,5.0,12.0,65,-99.99,,,-99.99,,2013-09-16 22:42:00,
2013-09-16 22:53:00,46.0,35.0,-100.00,WSW,238,6.0,12.0,65,-99.99,,,-99.99,,2013-09-16 22:53:00,
2013-09-16 23:12:00,45.0,32.0,-100.00,WSW,238,5.0,11.0,60,-99.99,,,-99.99,,2013-09-16 23:12:00,
2013-09-16 23:22:00,45.0,34.0,-100.00,WSW,245,5.0,10.0,64,-99.99,,,-99.99,,2013-09-16 23:22:00,
2013-09-16 23:43:00,44.0,33.0,-100.00,WSW,239,3.0,11.0,65,-99.99,,,-99.99,,2013-09-16 23:43:00,
2013-09-16 23:52:00,44.0,33.0,-100.00,SW,224,5.0,10.0,66,-99.99,,,-99.99,,2013-09-16 23:52:00,